This is the latest recevied weather packets stored in our database for station/object KC3UTO. If no packets are shown the sender has not sent any weather packets the latest 10 day(s).
| Time | Temp. | Humidity | Pressure | Rain* | Wind** | Luminosity | Snow |
|---|---|---|---|---|---|---|---|
| 1777779255 | 10° C | 50% | 1011.5 hPa | 0 mm | - | 0 W/m² | - |
| 1777778953 | 10° C | 49% | 1011.4 hPa | 0 mm | - | 0 W/m² | - |
| 1777778652 | 10° C | 49% | 1011.4 hPa | 0 mm | - | 0 W/m² | - |
| 1777778349 | 10° C | 49% | 1011.5 hPa | 0 mm | - | 0 W/m² | - |
| 1777778046 | 10° C | 49% | 1011.6 hPa | 0 mm | - | 0 W/m² | - |
| 1777777742 | 10° C | 50% | 1011.6 hPa | 0 mm | - | 0 W/m² | - |
| 1777777439 | 9.44° C | 49% | 1011.3 hPa | 0 mm | - | 0 W/m² | - |
| 1777777135 | 9.44° C | 50% | 1011.6 hPa | 0 mm | - | 0 W/m² | - |
| 1777776833 | 9.44° C | 50% | 1011.5 hPa | 0 mm | - | 0 W/m² | - |
| 1777776530 | 9.44° C | 50% | 1011.6 hPa | 0 mm | - | 0 W/m² | - |
| 1777776226 | 9.44° C | 50% | 1011.5 hPa | 0 mm | - | 0 W/m² | - |
| 1777775923 | 9.44° C | 50% | 1011.4 hPa | 0 mm | - | 0 W/m² | - |
| 1777775621 | 8.89° C | 50% | 1011.6 hPa | 0 mm | - | 0 W/m² | - |
| 1777775318 | 8.89° C | 51% | 1011.6 hPa | 0 mm | - | 0 W/m² | - |
| 1777775018 | 8.89° C | 50% | 1011.7 hPa | 0 mm | - | 0 W/m² | - |
| 1777774714 | 8.89° C | 50% | 1011.8 hPa | 0 mm | - | 0 W/m² | - |
| 1777774410 | 9.44° C | 49% | 1011.8 hPa | 0 mm | - | 0 W/m² | - |
| 1777774108 | 9.44° C | 48% | 1011.7 hPa | 0 mm | - | 0 W/m² | - |
| 1777773806 | 9.44° C | 47% | 1011.9 hPa | 0 mm | - | 0 W/m² | - |
| 1777773502 | 9.44° C | 47% | 1011.8 hPa | 0 mm | - | 0 W/m² | - |
| 1777771382 | 10.56° C | 44% | 1011.8 hPa | 0 mm | - | 0 W/m² | - |
| 1777768654 | 11.67° C | 39% | 1011.1 hPa | 0 mm | - | 0 W/m² | - |
| 1777768351 | 11.67° C | 39% | 1011 hPa | 0 mm | - | 0 W/m² | - |
| 1777768048 | 11.67° C | 40% | 1011.3 hPa | 0 mm | - | 0 W/m² | - |
| 1777767745 | 11.67° C | 39% | 1010.8 hPa | 0 mm | - | 0 W/m² | - |
* Rain latest hour (hover to see other rain measurements)
** Current wind speed in m/s (hover to see current wind gust speed)